Terug naar catalogus

COSMOS 1852

ActiefMilitairLEO
NORAD 18113·PAYLOAD·🇷🇺 Russia

Gelanceerd Jun 16, 1987 vanaf Plesetsk Cosmodrome

Loading…

Volgende Passages (komende 24 uur)

TLE

VersSource: Space-Track

Epoch: Sep 14, 2026, 07:38 UTC

1 18113U 87051A   26257.31866954 -.00000009  00000-0  50356-4 0  9992
2 18113  74.0081   6.4274 0016675 175.0205 185.1012 12.44886877783522

Volg COSMOS 1852 in realtime met AllMySat

Download on the App Store